Regional Weather Roundup
Issued by NWS Green Bay, WI

Home | Current Version | Previous Version | Graphics & Text | Print | Product List | Glossary Off
Versions: 1 2 3 4 5 6 7 8 9 10 11 12 13 14 15 16 17 18 19 20 21 22 23 24 25 26 27 28 29 30 31 32 33 34 35 36 37 38 39 40 41 42 43 44 45 46 47 48 49 50

492
ASUS43 KGRB 300711
RWRGRB

NORTH-CENTRAL AND NORTHEAST WISCONSIN REGIONAL WEATHER ROUNDUP
NATIONAL WEATHER SERVICE GREEN BAY WI
200 AM CDT FRI SEP 30 2016

WIZ005-009-010>012-018-019-300800-
NORTH CENTRAL WISCONSIN

CITY           SKY/WX    TMP DP  RH WIND       PRES   REMARKS
IRONWOOD       CLOUDY    52  50  93 NE7       30.45S
MANITOWISH WTR FOG       44  44 100 CALM      30.43S VSB 1/4
ARBOR VITAE    CLEAR     49  48  96 CALM      30.42S
EAGLE RIVER    CLEAR     45  45 100 CALM      30.41F FOG
LAND O LAKES   CLEAR     47  47 100 NE3       30.44S
RHINELANDER    CLEAR     47  47 100 N3        30.41S
PHILLIPS       CLOUDY    48  48 100 NE5       30.41S FOG
ANTIGO         CLEAR     48  47  97 CALM      30.39S
TOMAHAWK       FOG       41  40  97 CALM      30.41S VSB 1/4
MERRILL        CLEAR     48  48 100 CALM      30.40S
$$

WIZ013-073-300800-
NORTHEAST WISCONSIN

CITY           SKY/WX    TMP DP  RH WIND       PRES   REMARKS
IRON MOUNTAIN  CLEAR     48  45  89 VRB3      30.39S
MARINETTE      MOCLDY    55  52  89 N8        30.35F
OCONTO         MOCLDY    55  51  89 N9        30.34S
$$

WIZ017-030-035>037-045-300800-
CENTRAL WISCONSIN

CITY           SKY/WX    TMP DP  RH WIND       PRES   REMARKS
MEDFORD        CLEAR    N/A N/A N/A NE6       30.39R
WAUSAU         CLEAR     52  48  86 CALM      30.36S
MOSINEE        CLEAR     50  48  93 N8        30.38S
MARSHFIELD     CLEAR     54  48  80 NE9       30.36S
WISC RAPIDS    CLEAR     53  50  89 NE8       30.35F
STEVENS POINT  CLEAR     50  49  94 N8        30.35F
WAUPACA        CLEAR     56  53  92 N5        30.34S
SHAWANO        CLEAR     56  52  85 NE7       30.36S
CLINTONVILLE   CLEAR     54  50  87 N8        30.34S
WAUTOMA        PTCLDY    56  52  86 NE8       30.33S
$$

WIZ038-039-048-051-300800-
FOX VALLEY

CITY           SKY/WX    TMP DP  RH WIND       PRES   REMARKS
NWS GREEN BAY  CLOUDY    57  56  96 N12       30.32F
APPLETON       CLOUDY    54  54 100 N14       30.30F
OSHKOSH        CLOUDY    59  55  87 NE12      30.29F
FOND DU LAC    CLOUDY    61  55  81 NE14      30.29S
$$

WIZ022-050-052-300800-
EAST CENTRAL WISCONSIN

CITY           SKY/WX    TMP DP  RH WIND       PRES   REMARKS
EPHRAIM        CLOUDY    58  57  97 NE5       30.34S
WASHINGTON ISL FAIR      58  55  88 NE6       30.35S
STURGEON BAY   CLOUDY    59  56  89 N9        30.34F
MANITOWOC      LGT RAIN  60  56  86 MISG      30.29F
SHEBOYGAN      CLOUDY    60  55  83 NE14      30.27F
$$

LMZ563-521-522-541>543-300800-
LAKESHORE

STATION/POSITION TIME  TEMP    WIND        PRES    VSBY  WAVE
                       AIR SEA DIR/SP/G                  HT/PER
                 (UTC) (F)     (DEG/KT/KT) (MB)    (MI)  (FT/S)
SHEBOYGAN LKSHOR 0700   61      30/ 16/ 17 1024.6F
KEWAUNEE LKSHORE 0600   63      60/  7/ 13 1026.1F
NORTHPORT PIER   0600   60      10/ 13/ 14 1027.8F
N MID LAKE BUOY  0650   64 65   80/ 14/ 17 1027.1S         3/ 4
S GREEN BAY BUOY 0600   58 62   30/ 14/ 17 1026.8F
SISTER BAY LKSHO 0608   59      30/  8/ 11   N/A
CHAMBERS ISLAND  0600   59     360/ 19/ 22 1027.4S
MENOMINEE LKSHOR 0600   57     360/ 13/ 15 1027.0F
$$




USA.gov is the U.S. government's official web portal to all federal, state and local government web resources and services.